User: anonymous   Login
Location: Unspecified
(0.0000°N, 0.0000°E)
Time: 09:30:45
(UTC+00:00)
Language:

LEMUR-2 CUBECHEESE - Orbit

View from above orbital plane
View from above orbital plane
View from above satellite
View from above satellite

Ground track
Ground track

The orbit data is extracted from the following two-line orbital elements,

1 41598U 16019E   17058.48104143  .13500253  12598-4  42079-3 0  9993
2 41598  51.6082 187.4528 0006461 311.7838  48.2638 16.44599812 39534
Epoch (UTC): 27 February 2017 11:32:41
Eccentricity: 0.0006461
inclination: 51.6082°
perigee height: 149 km
apogee height: 158 km
right ascension of ascending node: 187.4528°
argument of perigee: 311.7838°
revolutions per day: 16.44599812
mean anomaly at epoch: 48.2638°
orbit number at epoch: 3953

The dashed part of the orbit path shows where the satellite is in the earth's shadow,  

DLR